TimeCST,TemperatureF,Dew PointF,Humidity,Sea Level PressureIn,VisibilityMPH,Wind Direction,Wind SpeedMPH,Gust SpeedMPH,PrecipitationIn,Events,Conditions,WindDirDegrees,DateUTC
12:53 AM,59.0,54.0,83,29.92,10.0,ESE,6.9,-,N/A,,Clear,110,2012-12-03 06:53:00
1:53 AM,61.0,55.0,81,29.92,10.0,ESE,5.8,-,N/A,,Clear,110,2012-12-03 07:53:00
2:53 AM,61.0,55.9,83,29.91,10.0,ESE,5.8,-,N/A,,Clear,110,2012-12-03 08:53:00
3:53 AM,60.1,55.9,86,29.90,9.0,East,6.9,-,N/A,,Clear,100,2012-12-03 09:53:00
4:53 AM,60.1,55.9,86,29.88,9.0,ESE,8.1,-,N/A,,Clear,110,2012-12-03 10:53:00
5:53 AM,61.0,55.9,83,29.88,10.0,ESE,4.6,-,N/A,,Clear,110,2012-12-03 11:53:00
6:53 AM,61.0,55.9,83,29.86,10.0,SE,8.1,-,N/A,,Clear,140,2012-12-03 12:53:00
7:53 AM,64.0,57.0,78,29.86,10.0,SSE,10.4,-,N/A,,Clear,150,2012-12-03 13:53:00
9:53 AM,69.1,57.9,68,29.85,10.0,South,12.7,20.7,N/A,,Clear,180,2012-12-03 15:53:00
10:53 AM,72.0,57.9,61,29.84,10.0,SSW,16.1,26.5,N/A,,Partly Cloudy,200,2012-12-03 16:53:00
11:53 AM,73.9,57.0,55,29.80,10.0,South,21.9,32.2,N/A,,Scattered Clouds,180,2012-12-03 17:53:00
12:53 PM,75.9,55.9,50,29.78,10.0,South,26.5,34.5,N/A,,Scattered Clouds,190,2012-12-03 18:53:00
1:53 PM,75.0,55.9,51,29.78,10.0,South,16.1,24.2,N/A,,Mostly Cloudy,190,2012-12-03 19:53:00
2:53 PM,75.9,55.0,48,29.78,10.0,South,11.5,28.8,N/A,,Overcast,190,2012-12-03 20:53:00
3:53 PM,73.9,54.0,50,29.81,10.0,SSW,9.2,-,N/A,,Overcast,200,2012-12-03 21:53:00
4:53 PM,73.0,53.1,49,29.83,10.0,South,4.6,-,N/A,,Overcast,190,2012-12-03 22:53:00
5:53 PM,73.0,53.1,49,29.84,10.0,SSW,5.8,-,N/A,,Overcast,200,2012-12-03 23:53:00
6:53 PM,72.0,52.0,49,29.86,10.0,South,4.6,-,N/A,,Overcast,190,2012-12-04 00:53:00
7:53 PM,71.1,53.1,53,29.86,10.0,South,10.4,-,N/A,,Overcast,170,2012-12-04 01:53:00
8:53 PM,69.1,53.1,57,29.86,10.0,South,8.1,-,N/A,,Mostly Cloudy,170,2012-12-04 02:53:00
9:53 PM,68.0,54.0,61,29.87,10.0,South,5.8,-,0.00,Rain,Light Rain,170,2012-12-04 03:53:00
10:20 PM,59.0,53.6,82,29.96,3.0,NW,16.1,-,0.08,Rain,Heavy Rain,320,2012-12-04 04:20:00
10:53 PM,57.0,53.1,87,29.94,3.0,NW,6.9,-,0.21,Rain,Rain,320,2012-12-04 04:53:00
11:49 PM,55.4,53.6,94,29.98,2.5,WNW,3.5,-,0.15,Rain,Heavy Rain,300,2012-12-04 05:49:00